Location: Goheenville
(40.9070°N, 79.3720°W)
Time: 03:39:32
(UTC-04:00)

Cosmos 1727 Rocket - Visible Passes

Search period start: 26 May 2015 00:00
Search period end: 05 June 2015 00:00
Orbit: 962 x 996 km, 82.9° (Epoch: 26 May)

Date Brightness Start Highest point End Pass type
(mag) Time Alt. Az. Time Alt. Az. Time Alt. Az.
26 May 3.8 00:19:10 10° N 00:25:29 80° E 00:26:14 69° SE visible
26 May 5.9 02:06:52 10° NW 02:10:14 14° W 02:10:58 14° W visible
26 May 5.4 23:01:10 10° NNE 23:05:50 22° ENE 23:07:47 19° E visible
27 May 4.2 00:45:40 10° NNW 00:51:48 57° W 00:52:31 53° WSW visible
27 May 4.7 23:26:48 10° N 23:32:38 39° ENE 23:34:05 35° ESE visible
28 May 5.1 01:12:33 10° NNW 01:17:58 30° W 01:18:49 29° WSW visible
28 May 6.1 22:11:43 10° NE 22:12:20 10° ENE 22:13:24 10° ENE visible
28 May 3.9 23:52:55 10° N 23:59:11 73° E 00:00:24 58° SE visible
29 May 5.9 01:40:12 10° NW 01:44:01 16° W 01:45:08 15° W visible
29 May 5.6 22:35:07 10° NNE 22:39:27 20° ENE 22:41:59 16° E visible
30 May 4.1 00:19:20 10° NNW 00:25:32 63° W 00:26:43 53° SW visible
30 May 4.8 23:00:37 10° N 23:06:17 36° ENE 23:08:19 29° ESE visible
31 May 5.0 00:46:10 10° NNW 00:51:44 34° W 00:53:03 31° WSW visible
31 May 4.0 23:26:39 10° N 23:32:53 65° E 23:34:40 46° SE visible
01 Jun 5.8 01:13:37 10° NW 01:17:48 18° W 01:19:24 16° WSW visible
01 Jun 5.7 22:09:05 10° NNE 22:13:03 18° ENE 22:16:16 13° E visible
01 Jun 4.1 23:53:02 10° NNW 23:59:16 70° W 00:01:00 48° SSW visible
02 Jun 4.9 22:34:27 10° NNE 22:39:56 32° ENE 22:42:38 23° ESE visible
03 Jun 5.0 00:19:46 10° NNW 00:25:29 37° W 00:27:23 30° SW visible
03 Jun 4.1 23:00:24 10° N 23:06:34 59° E 23:09:01 36° SE visible
04 Jun 5.8 00:47:05 10° NW 00:51:34 20° W 00:53:46 16° WSW visible
04 Jun 5.8 21:43:06 10° NNE 21:46:39 16° ENE 21:50:28 10° ESE visible
04 Jun 4.0 23:26:44 10° N 23:32:59 77° W 23:35:25 39° S visible
